[[{"header":{"parameterUnit":"m.s-1","parameterCategory":1,"la1":30.2992,"la2":30.254,"lo1":-89.0895,"lo2":-89.0443,"dy":0.0025,"dx":0.0025,"nx":19,"ny":19,"refTime":"2026-03-09T03:00:00:Z","depth":0,"parameterNumber":2,"parameterNumberName":"U-component_of_WINDS"},"data":[0,0,0,-0.3016,-0.3017,-0.3064,-0.3064,-0.3129,-0.313,0,0,0,0,0,0,0,0,0,0,0,-0.3004,-0.3005,-0.3016,-0.3017,-0.3064,-0.3064,-0.3129,-0.313,0,0,0,0,0,0,0,0,0,0,0,-0.3004,-0.3005,-0.3005,-0.3017,-0.3064,-0.3064,-0.3129,-0.3092,0,0,0,0,0,0,0,0,0,0,-0.3045,-0.3037,-0.3005,-0.3005,-0.3017,-0.3064,-0.3064,-0.309,-0.3094,-0.311,0,-0.3124,0,-0.3128,-0.3134,-0.3135,0,0,0,-0.3015,-0.3034,-0.3044,-0.3005,-0.3018,-0.3064,-0.3042,-0.3092,-0.3097,-0.3115,-0.3125,-0.3127,-0.3129,-0.3135,-0.3135,-0.3232,-0.3232,0,0,-0.3012,-0.3014,-0.3041,-0.3047,-0.304,-0.3041,-0.3044,-0.3095,-0.3106,-0.3125,-0.3129,-0.313,-0.3135,-0.3136,-0.3231,-0.3232,0,0,0,-0.3006,-0.3012,-0.3022,-0.3045,-0.3053,-0.3042,-0.3046,-0.3103,-0.3106,-0.3129,-0.3131,-0.3136,-0.3137,-0.3231,-0.3232,-0.326,0,0,0,-0.3005,-0.3009,-0.302,-0.3022,-0.3052,-0.3079,-0.3053,-0.3103,-0.3108,-0.3131,-0.3136,-0.3137,-0.323,-0.3231,-0.3258,-0.3274,0,0,0,-0.3,-0.3008,-0.3016,-0.3022,-0.3042,-0.3078,-0.3083,-0.3104,-0.311,-0.3135,-0.3138,-0.323,-0.3231,-0.3256,-0.3271,-0.33,0,0,0,-0.2996,-0.3041,-0.3016,-0.3066,-0.3042,-0.3095,-0.3083,-0.3122,-0.3148,-0.3136,-0.323,-0.3232,-0.3256,-0.3269,-0.3298,-0.3326,-0.3337,0,0,-0.3053,-0.3047,-0.3077,-0.3057,-0.3114,-0.3088,-0.315,-0.3171,-0.3172,-0.3212,-0.3214,-0.3259,-0.3271,-0.33,-0.34,-0.3409,0,0,0,-0.3095,-0.3116,-0.3131,-0.3155,-0.3173,-0.3189,-0.32,-0.3208,-0.3242,-0.3193,-0.3277,-0.3284,-0.3301,-0.3314,-0.3322,-0.3337,-0.3237,-0.3237,-0.3237,-0.3179,-0.3177,-0.3226,-0.323,-0.3254,-0.3265,-0.3284,-0.3297,-0.3288,-0.3309,-0.3321,-0.3382,-0.3397,-0.3403,-0.3418,-0.3335,-0.3335,-0.3335,-0.3335,-0.3262,-0.3292,-0.328,-0.3323,-0.3321,-0.3357,-0.337,-0.3363,-0.3397,-0.3372,-0.3387,-0.3361,-0.3413,-0.3427,-0.3337,-0.3337,-0.3336,-0.3336,-0.3336,-0.3317,-0.3331,-0.334,-0.3375,-0.3402,-0.3405,-0.3438,-0.3435,-0.3433,-0.3448,-0.3461,-0.346,-0.346,-0.3454,-0.3454,-0.3454,-0.3454,-0.3455,-0.3455,-0.3371,-0.338,-0.3408,-0.343,-0.3445,-0.3465,-0.3477,-0.3493,-0.3509,-0.3504,-0.3504,-0.3494,-0.3418,-0.3399,-0.3458,-0.3457,-0.3457,-0.3457,-0.3456,-0.3457,-0.3437,-0.3481,-0.3496,-0.3522,-0.355,-0.3546,-0.3577,-0.3589,-0.3605,-0.3592,-0.3536,-0.353,-0.3524,-0.3508,-0.3592,-0.3592,-0.3592,-0.3592,-0.3504,-0.3501,-0.3545,-0.357,-0.3594,-0.3594,-0.3644,-0.3654,-0.3662,-0.3669,-0.3657,-0.3636,-0.3629,-0.3627,-0.3619,-0.3604,-0.371,-0.3711,-0.3711,-0.3558,-0.3557,-0.3599,-0.3606,-0.3626,-0.3644,-0.3691,-0.372,-0.3725,-0.3715,-0.3675,-0.367,-0.3636,-0.3625,-0.3616,-0.3603,-0.3576,0,0]},{"header":{"parameterUnit":"m.s-1","parameterCategory":1,"la1":30.2992,"la2":30.254,"lo1":-89.0895,"lo2":-89.0443,"dy":0.0025,"dx":0.0025,"nx":19,"ny":19,"refTime":"2026-03-09T03:00:00:Z","depth":0,"parameterNumber":3,"parameterNumberName":"V-component_of_WINDS"},"data":[0,0,0,2.2721,2.272,2.2692,2.2692,2.2648,2.2647,0,0,0,0,0,0,0,0,0,0,0,2.2726,2.2726,2.2721,2.272,2.2692,2.2692,2.2648,2.2647,0,0,0,0,0,0,0,0,0,0,0,2.2726,2.2726,2.2725,2.272,2.2692,2.2692,2.2648,2.2672,0,0,0,0,0,0,0,0,0,0,2.27,2.2702,2.2726,2.2725,2.272,2.2692,2.2692,2.2673,2.267,2.2658,0,2.2648,0,2.2647,2.2644,2.2644,0,0,0,2.2721,2.2705,2.27,2.2725,2.2719,2.2692,2.2705,2.2671,2.2668,2.2654,2.2647,2.2646,2.2646,2.2644,2.2644,2.2572,2.2572,0,0,2.2723,2.2719,2.2702,2.2698,2.2704,2.2706,2.2704,2.267,2.2661,2.2647,2.2645,2.2646,2.2644,2.2643,2.2573,2.2572,0,0,0,2.2726,2.272,2.2716,2.27,2.2696,2.2705,2.2703,2.2662,2.2662,2.2644,2.2645,2.2643,2.2643,2.2573,2.2573,2.2548,0,0,0,2.2727,2.2722,2.2717,2.2714,2.2696,2.2679,2.2696,2.2664,2.266,2.2645,2.2643,2.2642,2.2574,2.2573,2.255,2.2536,0,0,0,2.2729,2.2722,2.2717,2.2713,2.2702,2.268,2.2677,2.2664,2.2661,2.2644,2.2642,2.2574,2.2573,2.2551,2.2538,2.2515,0,0,0,2.2728,2.2694,2.2717,2.2679,2.2702,2.2666,2.2677,2.265,2.2633,2.2643,2.2574,2.2573,2.2552,2.254,2.2517,2.2494,2.2484,0,0,2.2683,2.2689,2.2667,2.2687,2.2646,2.2671,2.2626,2.2613,2.2614,2.2586,2.2584,2.2549,2.2539,2.2516,2.2437,2.2429,0,0,0,2.2651,2.2636,2.2626,2.2611,2.2603,2.2593,2.2589,2.2584,2.2561,2.26,2.2536,2.253,2.2516,2.2505,2.2499,2.2487,2.2568,2.2568,2.2568,2.2578,2.2585,2.255,2.2553,2.2538,2.2535,2.2523,2.2516,2.2525,2.251,2.25,2.2452,2.2439,2.2434,2.2422,2.249,2.249,2.249,2.249,2.2511,2.2489,2.2505,2.2476,2.2483,2.2458,2.2454,2.2462,2.2438,2.2459,2.2448,2.2467,2.2426,2.2415,2.2488,2.2489,2.2489,2.2489,2.2489,2.2462,2.2452,2.245,2.243,2.2413,2.2418,2.2395,2.2402,2.2408,2.2397,2.2387,2.2387,2.2386,2.2392,2.2392,2.2392,2.2392,2.2392,2.2392,2.241,2.2409,2.239,2.238,2.2372,2.2362,2.2361,2.2352,2.2344,2.235,2.235,2.2359,2.2422,2.2436,2.2389,2.2389,2.239,2.239,2.239,2.2335,2.2354,2.2325,2.2317,2.2306,2.2289,2.23,2.2282,2.2276,2.2265,2.2278,2.2324,2.233,2.2335,2.2346,2.2278,2.2278,2.2278,2.2278,2.2291,2.2297,2.2269,2.2256,2.2244,2.2252,2.2217,2.2216,2.2217,2.2214,2.2225,2.2242,2.2248,2.225,2.2257,2.2267,2.2181,2.2181,2.2181,2.2245,2.2249,2.2219,2.2223,2.2216,2.2209,2.2177,2.216,2.2165,2.2177,2.2211,2.2215,2.2242,2.2252,2.226,2.2271,2.229,0,0]}]]